Regional Weather Roundup
Issued by NWS

Home | Current Version | Previous Version | Graphics & Text | Print | Product List | Glossary On
Versions: 1 2 3 4 5 6 7 8 9 10 11 12 13 14 15 16 17 18 19 20 21 22 23 24 25 26 27 28 29 30 31 32 33 34 35 36 37 38 39 40 41 42 43 44 45 46 47 48 49 50
069
ASUS43 KMKX 200521
RWRWI

WISCONSIN REGIONAL WEATHER ROUNDUP
NATIONAL WEATHER SERVICE MILWAUKEE/SULLIVAN WI
1100 PM CST THU JAN 19 2017

NOTE: "FAIR" INDICATES FEW OR NO CLOUDS BELOW 12,000 FEET WITH NO
SIGNIFICANT WEATHER AND/OR OBSTRUCTIONS TO VISIBILITY.

WIZ001-002-006>008-014>016-023>028-200600-
NORTHWEST WISCONSIN

CITY           SKY/WX    TMP DP  RH WIND       PRES   REMARKS
SUPERIOR ARPT  CLOUDY    29  29 100 CALM      29.72S FOG
ASHLAND        CLEAR     28  27  96 S5        29.74F WCI  23
HAYWARD        CLOUDY    31  29  92 CALM      29.71F FOG
SIREN          CLOUDY    37  32  82 CALM      29.70F
CUMBERLAND     CLOUDY    34  32  93 SE8       29.71S WCI  27
RICE LAKE      CLOUDY    35  32  88 E7        29.73F WCI  29
CHETEK         NOT AVBL
LADYSMITH      CLOUDY    35  32  90 SE6       29.75F WCI  30
EAU CLAIRE     MIX PCPN  36  33  89 SE7       29.73F WCI  30
MENOMONIE        N/A    N/A N/A N/A MISG        N/A
NEW RICHMOND   CLOUDY    36  31  85 E6        29.70S WCI  31
OSCEOLA        CLOUDY    35  32  88 SE6       29.72S WCI  30
$$

WIZ003>005-009-010-017-018-200600-
NORTH CENTRAL WISCONSIN

CITY           SKY/WX    TMP DP  RH WIND       PRES   REMARKS
MANITOWISH WTR PTCLDY    26  26 100 E3        29.74S FOG
ARBOR VITAE    CLOUDY    32  31  96 CALM      29.74F FOG
WOODRUFF       CLOUDY    32  31  96 CALM      29.74F FOG
RHINELANDER    CLOUDY    28  27  96 E5        29.75F FOG     WCI  23
EAGLE RIVER    CLOUDY    26  26 100 CALM      29.75F FOG
LAND O LAKES   CLOUDY    26  26  99 CALM      29.77S FOG
PHILLIPS       CLOUDY    30  29  96 CALM      29.74R
TOMAHAWK       FOG       30  29  97 CALM      29.77R VSB 1/2
MEDFORD        MIX PCPN  31  31  99 SE5       29.75S WCI  26
MERRILL        CLOUDY    31  31 100 CALM        N/A  FOG
$$

WIZ029-030-035-036-043>047-200600-
CENTRAL WISCONSIN

CITY           SKY/WX    TMP DP  RH WIND       PRES   REMARKS
WAUSAU         CLOUDY    31  31 100 SE6       29.77S FOG     WCI  25
MOSINEE        CLOUDY    32  32 100 SE3       29.79R FOG
MARSHFIELD     LGT RAIN  33  31  92 SE7       29.75F FOG     WCI  27
STEVENS POINT  CLOUDY    30  30 100 CALM      29.79F FOG
WAUPACA        CLOUDY    33  32  95 CALM      29.80F FOG
WAUTOMA        MIX PCPN  32  32 100 E5        29.80F FOG     WCI  27
WISC RAPIDS    MIX PCPN  33  33 100 E5        29.78F FOG     WCI  29
CAMP DOUGLAS   LGT RAIN  34  32  93 E6        29.75F FOG     WCI  29
$$

WIZ011>013-019>022-031-037>040-048>050-200600-
NORTHEAST WISCONSIN

CITY           SKY/WX    TMP DP  RH WIND       PRES   REMARKS
ANTIGO         CLOUDY    30  30 100 S6        29.77R FOG     WCI  24
SHAWANO        FOG       32  32  97 CALM      29.81F VSB 1
OCONTO         CLOUDY    31  31  99 SE5       29.83R VSB 1/4 WCI  27
STURGEON BAY   FOG       32  31  96 SE5       29.83F VSB 1/4 WCI  27
GREEN BAY      CLOUDY    34  34 100 E5        29.81S FOG     WCI  30
MANITOWOC      FOG       34  32  92 E3        29.82F VSB 1/4
APPLETON       FOG       32  32 100 E3        29.78S VSB 3/4
CLINTONVILLE   CLOUDY    32  32 100 CALM      29.81S FOG
OSHKOSH        MIX PCPN  33  31  92 CALM      29.80S FOG
$$

WIZ032>034-041-042-053>061-200600-
SOUTHWEST WISCONSIN

CITY           SKY/WX    TMP DP  RH WIND       PRES   REMARKS
LA CROSSE      LGT RAIN  38  35  89 E7        29.73F FOG     WCI  33
SPARTA         RAIN      34  34 100 E6        29.75F WCI  29
VIROQUA        CLOUDY    34  34 100 E9        29.71S WCI  26
BOSCOBEL       CLOUDY    36  35  96 NE5       29.73S FOG     WCI  32
PRAIRIE DU CHI CLOUDY    35  34  96 E3        29.71S FOG
PLATTEVILLE    CLOUDY    36  36 100 E14       29.70F WCI  27
$$

WIZ056-057-062-063-064-067-068-200600-
SOUTH CENTRAL WISCONSIN

CITY           SKY/WX    TMP DP  RH WIND       PRES   REMARKS
REEDSBURG      LGT RAIN  33  33 100 E7        29.75F WCI  27
BARABOO/DELLS  MIX PCPN  33  33  99 E7        29.75F VSB 1   WCI  27
LONE ROCK      CLOUDY    36  34  92 E9        29.74F FOG     WCI  29
MINERAL POINT  CLOUDY    36  36 100 E10       29.70F FOG     WCI  28
MADISON        RAIN      35  34  96 E6        29.76F FOG     WCI  30
MIDDLETON      CLOUDY    37  37 100 E7        29.75F WCI  31
WATERTOWN      DRIZZLE   34  34 100 CALM      29.78S
MONROE         LGT RAIN  34  34 100 E8        29.72F VSB 1/4 WCI  27
JANESVILLE     LGT RAIN  36  36 100 NE9       29.74F WCI  29
$$

WIZ051-052-058>065-066-070>072-200600-
SOUTHEAST WISCONSIN

CITY           SKY/WX    TMP DP  RH WIND       PRES   REMARKS
MILWAUKEE      LGT RAIN  38  36  92 E8        29.78F VSB 1/2 WCI  32
WAUKESHA       LGT RAIN  34  34 100 E5        29.78F WCI  30
MILWAUKEE/TIMM LGT RAIN  36  34  93 E3        29.79F VSB 3/4
RACINE         LGT RAIN  38  36  92 E8        29.79F FOG     WCI  32
KENOSHA        LGT RAIN  37  36  96 E8        29.77F FOG     WCI  31
FOND DU LAC    LGT RAIN  35  32  88 SE3       29.79F FOG
SHEBOYGAN      FOG       33  32  96 NE3       29.80F VSB 1/4
WEST BEND      DRZL/FOG  34  34 100 NE5       29.78F VSB 1/4 WCI  30
JUNEAU         LGT RAIN  34  33  97 CALM      29.79S
$$

LSZ147-162-200600-
LAKE SUPERIOR

STATION/POSITION TIME  TEMP    WIND        PRES    WAVE
                       AIR SEA DIR/SP/G            HT/PER
                 (UTC) (F)     (DEG/KT/KT) (MB)    (FT/S)
DEVILS ISLAND    0500   40     220/  7/  8 1006.7F
PORT WING        0440   38     170/  4/  7 1006.4F
SAXON HARBOR     0430   30     190/  3/  5 1007.1F
$$

LMZ867-665-643>646-200600-
LAKE MICHIGAN

STATION/POSITION TIME  TEMP    WIND        PRES    WAVE
                       AIR SEA DIR/SP/G            HT/PER
                 (UTC) (F)     (DEG/KT/KT) (MB)    (FT/S)
NORTHPORT PIER   0440   34        CALM     1010.2F
SISTER BAY       0450   33        CALM       N/A
ALGOMA LAKESHORE 0424             CALM       N/A
KEWAUNEE LAKESHO 0454   33      40/  2/  3 1009.6F
SHEBOYGAN LAKESH 0500   36     100/  3/  3 1009.6F
PORT WASHINGTON  0440   36      40/  5/  7 1010.2F
MILWAUKEE LAKESH 0500   36      40/  6/  6   N/A
KENOSHA   LAKESH 0500   36      90/ 11/ 12 1008.5
$$

TC  - TEMPERATURE IN CELSIUS
VSB - VISIBILITY IN STATUTE MILES
WCI - WIND CHILL INDEX
HX  - HEAT INDEX





USA.gov is the U.S. government's official web portal to all federal, state and local government web resources and services.